Theta_e
296 289 289 291 291 290 289 288 287 288 290 291 289 290 292 293 291 291 292 292 292 294 299 300 306 314 316 319 326 328 327 327 328 327 327 328 329 331 331 331 330 329 328 326
291 288 293 294 293 292 289 287 286 288 290 289 288 290 292 292 292 291 292 292 293 293 295 298 300 308 315 317 322 326 327 327 328 328 328 325 329 330 331 331 331 330 329 327
287 290 295 294 291 290 288 287 286 287 288 288 285 285 287 291 291 292 293 293 294 294 295 294 296 300 306 309 314 321 326 327 328 328 326 322 326 328 327 327 328 329 329 328
288 292 292 291 290 291 287 290 289 288 285 281 285 279 282 286 289 291 293 292 293 293 293 295 296 297 298 300 300 301 309 323 326 326 326 325 324 323 325 327 328 329 329 328
287 289 289 289 291 291 289 291 290 288 284 283 282 279 282 283 285 287 291 290 291 292 294 296 298 300 300 302 302 301 300 300 305 326 326 325 324 325 326 327 326 326 326 327
289 290 292 291 292 292 291 289 288 285 283 278 282 281 280 283 287 286 287 289 292 293 295 297 299 300 299 300 303 300 298 297 299 306 322 325 321 323 323 323 323 324 324 324
286 286 289 291 289 291 290 286 279 277 276 276 279 278 283 285 288 289 289 290 291 293 294 296 297 297 298 299 302 304 300 301 304 307 313 319 319 319 322 321 321 322 321 320
280 279 287 290 289 287 286 286 278 271 273 275 279 278 283 287 288 290 292 292 292 293 295 295 296 296 297 299 301 303 304 304 305 307 308 310 312 314 318 318 316 315 315 314
281 281 287 288 290 291 286 283 286 280 271 275 278 280 286 287 286 290 291 291 292 293 294 295 295 295 296 297 298 300 301 301 301 302 303 302 303 305 309 307 306 304 305 304
285 280 286 287 289 289 288 289 282 280 272 271 276 277 280 284 287 290 290 291 292 293 293 294 294 294 294 295 295 296 297 296 296 297 297 297 297 298 299 300 299 299 299 299
287 285 283 287 286 285 285 284 283 284 281 276 272 277 284 287 287 290 291 292 292 292 292 293 293 293 293 293 293 293 293 294 294 294 294 294 293 293 294 294 294 293 293 293
289 286 281 283 287 288 287 286 285 282 279 279 279 279 286 287 288 289 291 293 293 294 292 292 291 291 291 291 291 291 291 291 291 292 292 291 291 291 291 290 290 291 290 291
290 284 278 281 284 286 285 286 287 285 283 279 277 279 287 288 288 288 290 292 293 293 292 291 290 290 289 289 290 290 290 290 290 291 290 290 289 289 288 288 289 289 289 288
294 286 283 279 281 285 282 284 285 285 280 279 279 282 285 287 289 289 291 293 293 293 292 291 290 290 289 289 289 289 289 290 289 289 289 288 287 287 287 287 287 287 287 286
291 280 282 284 285 286 285 286 285 284 286 282 285 283 286 288 290 291 292 293 292 292 292 291 290 290 289 288 288 288 289 289 289 288 287 286 286 286 286 286 285 285 285 285
289 277 283 280 285 285 283 285 287 286 286 285 283 283 288 289 292 291 293 293 293 293 293 292 291 290 289 289 288 288 288 287 287 286 285 285 285 284 284 284 284 284 284 284
287 282 281 281 283 283 280 284 285 287 288 287 283 289 288 288 291 293 293 294 294 294 293 292 291 290 289 289 289 287 286 286 285 284 284 284 284 283 284 284 283 283 282 283
285 284 281 278 280 276 286 288 289 288 288 290 288 286 289 290 292 294 296 295 295 294 293 292 291 289 288 288 288 287 286 284 284 284 283 283 283 282 283 282 282 282 282 281
287 284 276 275 267 279 282 284 284 284 286 289 289 289 288 289 290 290 292 294 296 295 294 293 292 290 288 288 287 286 284 284 284 283 283 282 282 280 281 279 280 280 278 278
284 286 283 272 269 270 280 286 288 290 282 288 289 288 288 288 285 291 291 295 294 294 294 291 289 288 288 287 286 285 283 283 283 283 283 282 280 278 277 279 277 277 276 278
281 276 280 273 271 276 283 285 288 281 282 285 288 290 290 289 292 291 291 290 292 292 290 289 289 288 287 285 285 284 283 283 283 282 281 279 278 276 276 275 274 272 271 274
282 280 280 276 274 276 284 284 284 286 284 284 287 289 289 289 287 288 288 287 287 287 288 288 287 286 285 285 285 283 283 281 280 279 277 275 272 276 274 271 268 268 267 267
282 284 283 284 282 284 283 284 286 287 285 285 286 286 289 288 286 286 285 285 285 286 285 285 285 283 284 284 285 283 280 278 275 274 272 271 273 272 269 268 266 268 264 265
281 281 282 283 282 282 284 286 287 287 286 286 286 286 288 287 286 285 284 284 284 283 283 283 283 283 281 280 280 280 278 275 273 273 272 270 270 267 264 268 267 262 263 263
283 284 281 281 282 283 284 286 288 287 285 285 285 286 287 286 284 284 283 282 283 282 280 282 283 282 280 278 276 276 274 273 272 272 270 269 267 264 265 267 264 267 267 268
282 283 283 282 287 287 287 287 288 287 286 285 285 284 285 285 285 282 281 282 282 281 280 280 279 279 276 274 271 269 269 271 270 269 269 266 265 263 265 264 264 272 275 277
Wind_Speed
5 7 25 23 4 3 5 7 6 5 5 7 8 7 8 5 4 8 9 9 9 12 11 8 9 10 9 8 13 13 12 10 9 5 6 5 6 5 4 3 6 6 5 6
6 24 15 6 7 7 3 3 6 1 1 3 4 12 8 5 7 9 10 9 10 6 7 8 8 7 9 11 13 12 13 12 11 9 7 4 6 3 4 4 5 6 6 6
10 7 10 16 7 10 6 8 5 4 3 1 3 6 6 8 7 6 8 7 7 11 10 7 7 6 4 5 7 9 10 13 12 11 5 3 3 1 2 2 3 5 7 7
4 7 14 13 15 13 15 10 7 7 7 6 5 7 7 8 10 9 12 10 10 8 5 4 6 5 6 4 4 5 5 7 7 8 8 11 7 6 4 4 4 5 6 7
9 11 12 19 23 9 9 7 9 7 6 6 3 1 8 3 7 11 15 9 8 6 7 9 8 6 4 3 2 3 4 5 5 10 10 9 8 7 6 4 5 4 4 6
7 3 10 9 6 9 6 8 7 5 2 3 6 7 6 7 8 5 4 8 9 8 6 7 6 5 4 3 4 3 4 3 4 6 8 11 9 5 6 4 4 3 2 3
5 4 2 4 7 3 6 9 2 1 1 7 1 3 10 5 7 6 10 10 9 7 8 7 8 6 4 4 4 4 5 3 3 6 6 8 7 6 6 5 3 2 2 2
7 6 8 4 8 10 8 12 8 8 5 4 2 8 8 3 6 4 7 9 9 7 7 7 6 6 5 5 4 6 6 6 6 6 7 6 6 5 6 7 5 5 5 4
9 7 2 0 1 8 7 6 5 9 3 4 5 7 10 2 1 5 9 8 9 8 8 8 7 7 5 5 5 6 7 6 6 7 6 7 7 8 9 10 8 5 5 4
7 4 2 1 1 1 7 9 3 3 6 4 4 5 7 7 10 9 9 11 8 7 7 7 6 7 4 5 5 6 6 7 7 7 7 7 8 8 7 7 11 9 6 6
5 5 1 2 6 8 3 4 2 5 5 7 3 8 10 14 10 15 10 10 11 10 8 7 7 6 6 5 6 6 6 7 8 8 7 9 8 8 8 11 9 6 6 6
4 6 5 5 3 1 2 5 6 7 8 2 3 8 3 4 8 12 12 11 9 9 7 7 7 7 6 6 6 6 6 7 6 7 9 9 9 9 10 10 7 6 7 6
9 1 5 4 3 3 6 6 7 5 4 8 7 7 1 3 4 9 14 11 10 10 9 7 7 7 7 6 6 6 6 6 6 8 9 8 8 9 9 8 7 6 6 6
11 4 9 11 7 9 5 6 5 5 4 4 8 6 5 5 5 6 10 13 13 12 12 11 8 7 7 7 6 6 6 6 6 8 8 9 7 7 7 7 7 6 6 6
8 6 4 1 2 5 5 15 15 11 15 8 14 10 8 10 10 7 7 10 13 13 13 12 12 10 9 8 6 6 6 6 6 8 8 7 6 6 7 7 7 6 6 5
2 4 4 1 1 4 1 7 15 15 16 14 5 7 6 4 9 8 12 14 15 16 15 14 13 13 13 12 10 8 7 6 6 7 8 6 7 7 7 6 6 6 6 5
8 7 4 16 3 4 4 13 14 16 16 17 13 22 7 7 13 15 15 17 19 18 18 18 17 15 14 12 12 11 9 7 7 8 6 6 6 7 6 6 6 5 5 3
8 8 3 4 3 9 15 9 13 18 12 21 12 1 11 9 13 9 16 20 19 17 17 16 15 13 12 11 9 9 8 8 8 7 6 6 6 7 6 6 5 4 3 4
3 6 4 8 6 7 8 8 10 11 21 12 19 12 6 2 4 6 9 8 18 22 20 17 14 13 12 13 11 11 9 8 8 8 7 6 6 6 5 5 5 3 3 2
3 2 5 3 8 13 3 9 8 8 21 8 12 10 10 7 6 13 13 17 13 12 13 15 15 13 14 12 12 13 11 10 9 8 7 6 5 5 5 4 4 2 1 1
3 2 13 5 5 10 6 5 5 11 11 6 9 12 14 13 14 4 9 6 8 12 15 14 16 16 14 13 13 12 11 11 7 7 6 6 5 5 4 3 2 2 2 3
12 9 8 3 4 18 6 4 13 5 1 2 2 4 8 4 2 3 5 8 10 13 14 15 15 12 11 13 13 12 11 7 8 7 6 5 4 3 3 5 2 3 4 3
7 7 8 12 8 2 4 1 2 2 2 1 1 1 5 6 4 5 5 7 7 10 10 9 13 13 10 11 11 13 8 10 8 7 7 5 5 3 3 4 4 3 3 2
3 1 4 4 1 2 4 2 3 2 3 1 1 3 5 6 7 5 7 6 8 8 10 8 12 13 11 7 6 7 10 9 8 7 6 4 5 3 2 2 2 3 2 1
4 7 6 3 3 3 4 3 6 4 1 2 2 3 4 6 5 5 5 5 6 6 6 9 12 12 11 8 7 8 9 9 8 6 5 5 3 3 2 1 3 3 3 4
4 6 5 5 6 4 2 7 6 5 2 1 2 2 3 4 6 4 4 4 7 9 7 8 7 9 9 8 8 6 6 8 9 7 5 4 4 2 3 2 1 4 1 3
Wind_Direction
202 173 202 202 181 200 180 163 176 202 203 143 210 236 234 193 200 211 215 219 224 227 226 212 206 200 173 176 178 185 179 184 168 166 176 193 211 209 206 195 189 187 191 190
166 213 206 161 170 216 264 189 196 286 168 143 177 243 240 211 222 205 211 224 221 230 217 216 196 202 180 173 183 183 186 181 185 181 186 172 178 187 200 187 195 192 193 198
195 223 164 183 167 205 203 215 191 193 136 43 158 276 232 236 235 220 226 227 239 210 210 214 197 190 145 147 168 181 190 185 187 183 161 98 100 115 160 181 192 203 193 197
255 233 164 189 204 187 222 187 189 157 138 203 170 264 255 230 229 208 225 209 228 219 201 145 135 121 135 133 116 121 158 178 182 167 176 185 191 178 184 189 190 201 201 200
206 177 183 190 203 178 227 155 166 158 167 127 223 161 263 218 239 231 221 207 201 192 163 136 127 125 94 92 128 146 145 151 168 182 182 186 197 194 175 167 180 199 203 210
194 253 175 198 164 183 152 99 62 65 99 225 196 175 255 200 206 219 177 177 166 161 132 116 108 103 91 65 65 100 143 171 186 179 185 188 195 187 143 156 180 218 183 186
172 207 254 144 114 113 200 140 128 227 233 217 188 168 238 245 242 218 182 162 158 160 143 139 131 116 94 83 77 88 115 106 137 153 164 181 177 171 164 129 137 137 124 88
156 205 180 182 182 176 196 175 150 173 182 223 111 232 248 254 276 266 143 144 137 160 149 144 139 127 126 117 102 103 103 102 92 103 97 105 123 122 115 104 89 78 75 54
167 207 343 103 152 159 187 191 160 100 24 69 207 278 300 195 21 136 142 140 159 164 151 149 142 136 136 118 98 114 105 90 80 81 86 71 72 88 102 100 93 86 81 62
197 128 334 119 232 106 181 154 107 359 128 228 264 270 233 216 206 178 173 168 165 156 144 144 143 139 130 117 104 89 90 100 93 82 77 81 81 84 89 111 85 79 73 72
140 105 232 107 205 170 148 182 134 120 152 173 175 251 214 211 191 187 176 179 172 168 163 156 149 141 129 116 111 111 99 101 91 91 91 90 81 80 84 85 81 80 80 74
130 110 142 187 253 225 307 218 160 184 219 223 165 266 158 206 189 171 181 177 168 165 161 151 146 137 134 129 123 118 107 100 95 98 95 89 87 82 82 82 87 82 80 69
170 242 90 32 354 208 202 206 188 113 72 196 148 255 36 239 209 198 170 163 163 158 150 152 146 150 148 138 135 124 114 112 101 101 101 94 91 97 97 94 89 86 94 86
117 165 156 188 199 129 191 191 193 153 148 177 222 228 254 231 198 169 167 165 165 164 168 162 160 159 150 154 149 137 127 126 118 108 109 106 102 102 100 97 93 90 84 84
128 193 138 54 79 178 186 189 187 194 217 186 233 199 232 213 196 180 152 148 160 170 171 173 170 166 163 154 147 135 134 134 130 120 114 115 114 105 100 94 91 89 86 91
121 212 129 81 351 119 129 220 195 212 219 241 92 246 211 138 116 158 174 171 182 184 181 177 173 167 168 166 160 151 148 144 130 126 122 126 114 111 103 102 101 91 78 70
144 129 134 223 160 96 330 209 199 218 214 209 221 238 162 195 188 187 180 187 191 188 182 181 179 175 172 169 163 160 152 139 132 128 131 126 124 110 108 109 101 97 88 96
145 125 86 138 55 223 255 162 196 214 209 223 234 193 184 202 210 192 193 191 192 186 183 179 175 173 168 161 154 137 142 142 138 135 133 130 118 116 123 121 120 118 91 70
59 129 121 147 185 300 240 217 163 176 246 214 223 208 201 132 88 260 199 200 199 190 186 181 172 162 155 159 153 146 145 144 145 150 147 140 132 133 136 128 119 94 74 56
42 54 147 114 162 214 330 176 156 92 265 206 202 188 179 142 194 228 192 196 188 173 166 160 157 149 156 159 151 152 158 157 159 158 145 133 131 127 128 128 125 107 135 126
122 45 205 172 226 278 233 160 140 156 261 205 193 205 182 192 223 212 128 144 160 160 156 151 155 163 162 154 155 159 158 170 153 136 130 124 123 125 127 121 95 127 89 49
172 161 195 135 211 255 158 61 170 219 54 166 196 200 192 165 74 95 106 133 141 146 149 156 154 156 151 156 157 158 166 136 126 124 118 116 116 123 126 130 114 71 83 85
200 195 184 188 208 264 205 351 67 61 120 161 144 259 164 140 153 139 134 130 135 143 141 144 149 140 148 157 164 160 153 137 134 133 145 145 137 127 130 115 105 101 87 118
270 221 152 96 235 159 181 77 53 38 113 153 90 166 175 154 155 152 143 145 142 144 147 140 143 153 153 146 131 139 144 139 140 139 144 144 135 112 73 89 122 125 172 121
194 144 150 267 216 127 195 170 156 115 93 107 132 184 161 134 161 153 150 149 146 143 126 152 158 159 160 146 132 135 135 138 143 142 145 145 141 140 123 166 175 198 230 159
195 165 163 210 187 134 222 176 165 183 197 88 73 23 63 133 162 140 163 159 153 156 151 158 150 149 149 142 141 134 139 150 146 151 159 156 146 164 162 156 357 347 10 343